Home > Weather > San Jose > Past weeks

Flag for U.S.A. Weather for the Past 2 Weeks in San Jose, California, U.S.A.

Now
53 °F

Passing clouds.


Feels Like: 53 °F
Forecast: 49 / 69 °F
Wind: No wind

Location: San Jose International Airport

Current Time: Feb 13, 2016 at 2:04:59 AM

Latest Report: Feb 13, 2016 at 1:03 AM


Visibility: 10 mi

Pressure: 30.22 "Hg

Humidity: 93%

Dew point: 51 °F

Location of San JoseLocation

Historic Weather in San Jose — Graph

°F

San Jose Temperature Yesterday

Maximum temperature yesterday: 68 °F (at 1:53 PM)
Minimum temperature yesterday: 49 °F (at 4:53 AM)
Average temperature yesterday: 58 °F

High & Low Weather Summary for the Past Weeks

 TemperatureHumidityPressure
High76 °F (Feb 7, 2:53 PM)93% (Jan 29, 10:53 PM)30.46 "Hg (Jan 29, 10:53 PM)
Low39 °F (Feb 2, 12:53 AM)23% (Feb 7, 2:53 PM)29.76 "Hg (Jan 31, 2:53 PM)
Average55 °F68%30.20 "Hg
* Reported Jan 29 1:53 AM — Feb 13 1:03 AM, San Jose, Weather by CustomWeather, © 2016

Note: Actual official high and low records may vary slightly from our data, if they occured in-between our weather recording intervals... More about our weather records

Advertising

San Jose Weather History for the Previous 24 Hours

 ConditionsComfort  
Time TempWeatherWind HumidityBarometerVisibility
1:03 AM
Sat, Feb 13
53 °FPassing clouds.No wind93%30.22 "Hg10 mi
12:53 AM53 °FClear.No wind93%30.22 "Hg10 mi
11:53 PM
Fri, Feb 12
56 °FPartly cloudy.No wind93%30.21 "Hg10 mi
10:53 PM57 °FPartly cloudy.No wind90%30.21 "Hg10 mi
9:53 PM58 °FPassing clouds.No wind87%30.21 "Hg10 mi
8:53 PM57 °FPassing clouds.3 mph90%30.20 "Hg10 mi
7:53 PM59 °FPassing clouds.5 mph87%30.19 "Hg10 mi
6:53 PM60 °FPartly cloudy.7 mph83%30.19 "Hg10 mi
5:53 PM61 °FPassing clouds.9 mph81%30.19 "Hg10 mi
4:53 PM63 °FPartly sunny.12 mph75%30.18 "Hg10 mi
3:53 PM64 °FPartly sunny.12 mph70%30.16 "Hg10 mi
2:53 PM68 °FPartly sunny.7 mph53%30.16 "Hg10 mi
1:53 PM68 °FPartly sunny.7 mph51%30.17 "Hg10 mi
12:53 PM66 °FMostly cloudy.8 mph54%30.20 "Hg10 mi
11:53 AM66 °FMostly cloudy.9 mph56%30.22 "Hg10 mi
10:53 AM62 °FMostly cloudy.3 mph67%30.23 "Hg8 mi
9:53 AM59 °FBroken clouds.No wind78%30.24 "Hg7 mi
8:53 AM54 °FPartly sunny.No wind86%30.23 "Hg7 mi
7:53 AM51 °FBroken clouds.No wind86%30.22 "Hg9 mi
6:53 AM49 °FPassing clouds.5 mph86%30.21 "Hg10 mi
5:53 AM51 °FClear.No wind86%30.19 "Hg10 mi
4:53 AM49 °FClear.3 mph90%30.19 "Hg10 mi
3:53 AM51 °FClear.No wind89%30.19 "Hg8 mi
2:53 AM52 °FClear.No wind89%30.19 "Hg9 mi
Weather by CustomWeather, © 2016

See weather overviewHow to use our weather pages